Overview Statistics Trail Chart Weather Telemetry Raw packets
 

This is the latest recevied weather packets stored in our database for station/object N1SU-13. If no packets are shown the sender has not sent any weather packets the latest 10 day(s).

<< 1 2 3 4 5 6 >>
Time Temp. Humidity Pressure Rain* Wind** Luminosity Snow
1788659536 21.11° C 53% 1014.9 hPa - - - -
1788658958 21.67° C 52% 1014.7 hPa - - - -
1788658317 20.56° C 57% 1014.7 hPa - - - -
1788658272 20.56° C 57% 1014.7 hPa - - - -
1788657604 20° C 58% 1014.8 hPa - - - -
1788657029 19.44° C 60% 1014.8 hPa - - - -
1788656369 18.89° C 62% 1015 hPa - - - -
1788655718 18.89° C 64% 1014.9 hPa - - - -
1788655068 18.33° C 66% 1014.9 hPa - - - -
1788654383 18.33° C 65% 1014.9 hPa - - - -
1788653806 18.89° C 65% 1014.8 hPa - - - -
1788653118 18.89° C 63% 1014.6 hPa - - - -
1788652506 18.89° C 63% 1014.7 hPa - - - -
1788651903 18.89° C 63% 1014.7 hPa - - - -
1788651258 18.89° C 61% 1014.7 hPa - - - -
1788650683 18.89° C 62% 1014.7 hPa - - - -
1788650084 18.89° C 58% 1014.8 hPa - - - -
1788649508 18.89° C 60% 1014.8 hPa - - - -
1788648859 18.89° C 60% 1015.1 hPa - - - -
1788648203 18.89° C 60% 1015.2 hPa - - - -
1788647505 18.89° C 59% 1015.3 hPa - - - -
1788646946 18.89° C 61% 1015.3 hPa - - - -
1788646351 18.33° C 59% 1015.6 hPa - - - -
1788645728 18.33° C 59% 1015.6 hPa - - - -
1788645158 18.89° C 60% 1015.6 hPa - - - -

* Rain since midnight (hover to see other rain measurements)
** Current wind speed in m/s (hover to see current wind gust speed)